Location: *
(49.0044°N, 9.5056°E)
Time: 09:54:01
(UTC+00:00)

NOAA 11 - Pass Details

Date: 22 September 2019
Orbit: 832 x 850 km, 98.4° (Epoch: 15 October)

Event Time Altitude Azimuth Distance (km) Brightness Sun altitude
Rises 17:44:23 0° 151° (SSE) 3,403 7.0 -4.7°
Reaches altitude 10° 17:46:46 10° 148° (SSE) 2,470 6.3 -5.1°
Maximum altitude 17:52:09 59° 70° (ENE) 978 4.3 -6.0°
Drops below altitude 10° 17:57:32 10° 352° (N) 2,477 6.9 -6.8°
Sets 17:59:56 0° 349° (N) 3,414 7.6 -7.2°
